{"data":{"norad_id":58676,"intl_designator":"2023-211K","name":"STARLINK-31066","alt_names":[],"object_type":"PAYLOAD","status":"ACTIVE","operator":null,"country":"US","launch_date":"2023-12-29","launch_site_code":"AFETR","launch_vehicle":null,"mission":null,"orbit_class":"UNKNOWN","rcs_meters":null,"size_class":null,"mass_kg":null,"dimensions":null,"purposes":["comms"],"wikipedia_slug":null,"has_3d_model":false,"image_url":null,"decayed_at":null,"tle_current":{"epoch":"2026-05-25T01:54:01.031040Z","epoch_age_seconds":78928,"freshness":"FRESH","line1":"1 58676U 23211K   26145.07917860 -.00001829  00000+0 -56956-4 0  9993","line2":"2 58676  43.0022 159.6491 0001724 286.3331  73.7331 15.27571586133716","mean_motion":15.27571586,"eccentricity":0.0001724,"inclination_deg":43.0022,"raan_deg":159.6491,"arg_perigee_deg":286.3331,"mean_anomaly_deg":73.7331,"bstar":-5.6956e-5,"rev_number":13371,"period_min":94.267267943278,"perigee_km":481.8914178717,"apogee_km":484.25716352474,"semimajor_km":6861.2112906982,"source":"CELESTRAK","updated_at":"2026-05-25T13:38:18.711664Z"}}}